Retour au catalogue

USA 365

ActifMilitaireVLEO
NORAD 59825·PAYLOAD·🇺🇸 United States

Lancé May 22, 2024 depuis Vandenberg Space Force Base

Loading…

Prochains Passages (prochaines 24 heures)

TLE

PériméSource: Mike McCants

Époque: Aug 25, 2026, 21:14 UTC

1 59825U 24096M   26237.88505820 0.00000000  00000-0  00000-0 0    09
2 59825  70.0190 152.1676 0002000  64.4332 295.5667 14.96713608    05

Suivez USA 365 en temps réel avec AllMySat

Download on the App Store